Find Starlink 35928

NORAD ID: 66528 Int'l Des: 2025-265 Owner: SPXS Country: US Constellation: starlink operational
LEOCIRCULAR

現在のビュー

3D地球を読み込み中...

About Starlink 35928

Starlink 35928 (NORAD 66528) is a starlink constellation satellite (v2 mini) launched Nov 19, 2025 by SPXS of US. It operates in LEO, CIRCULAR orbit with a mass of 575.00 kg.

次回通過

Passes for default location (London). Set your location on the main map for personalized predictions.

高度履歴

Loading altitude history...

軌道要素

1 66528U 25265N 26263.33419033 .00008911 00000-0 33292-3 0 9993
2 66528 43.0002 258.5240 0001426 272.6192 87.4497 15.27583904 46885
Epoch: Sep 20, 2026 • Age: 24 hours

現在のステータス

高度 487.1 km
遠地点 / 近地点 N/A
速度 7.63 km/s
衛星直下点 42.98°N, 130.52°W
打ち上げ日 Nov 19, 2025
運用期間 0.8 years
タイプ internet

技術仕様

分類 Payload
質量 575.00 kg
乾燥質量 530.00 kg
長さ 0.30 m
スパン 29.00 m
形状 ? Box + pan
製造者 SPXS
バスタイプ Starlink V2MO
フェーズステータス In Orbit
所有者/国 SPXS/US

Most Searched